Satellite-Ground Cal/Val Region Overpasses Predictions

Prediction of Satellite NPP Overpassing Cal/Val Region: PacNW

Region Location: (Latitude: 10.00, Longitude: 139.50) to (Latitude: 22.70, Longitude: 165.60).

Table of predicted overpasses for the next 14.0 days since TLE Epoch: 7/17/2016
Interval Starting Time Starting Location Ending Time Ending Location
1 07/18/2016 02:52:48 ( 10.00, 156.72) 07/18/2016 02:56:24 ( 22.69, 153.71)
2 07/18/2016 15:24:41 ( 22.69, 153.95) 07/18/2016 15:28:17 ( 10.01, 150.94)
3 07/19/2016 02:33:47 ( 10.05, 161.47) 07/19/2016 02:37:22 ( 22.67, 158.47)
4 07/19/2016 15:05:40 ( 22.65, 158.70) 07/19/2016 15:09:15 ( 10.03, 155.70)
5 07/20/2016 02:15:31 ( 12.80, 165.59) 07/20/2016 02:18:19 ( 22.66, 163.23)
6 07/20/2016 03:56:14 ( 10.05, 140.85) 07/20/2016 03:57:53 ( 15.86, 139.50)
7 07/20/2016 14:46:37 ( 22.66, 163.46) 07/20/2016 14:50:12 ( 10.04, 160.46)
8 07/21/2016 03:37:12 ( 10.03, 145.61) 07/21/2016 03:40:47 ( 22.66, 142.61)
9 07/21/2016 14:30:42 ( 11.70, 165.60) 07/21/2016 14:31:10 ( 10.05, 165.22)
10 07/21/2016 16:09:05 ( 22.66, 142.85) 07/21/2016 16:12:40 ( 10.04, 139.84)
11 07/22/2016 03:18:10 ( 10.02, 150.38) 07/22/2016 03:21:45 ( 22.65, 147.38)
12 07/22/2016 15:50:02 ( 22.68, 147.61) 07/22/2016 15:53:37 ( 10.06, 144.61)
13 07/23/2016 02:59:07 ( 10.01, 155.14) 07/23/2016 03:02:43 ( 22.69, 152.12)
14 07/23/2016 15:31:00 ( 22.69, 152.37) 07/23/2016 15:34:36 ( 10.01, 149.35)
15 07/24/2016 02:40:05 ( 10.00, 159.90) 07/24/2016 02:43:41 ( 22.68, 156.88)
16 07/24/2016 15:11:57 ( 22.70, 157.13) 07/24/2016 15:15:33 ( 10.02, 154.12)
17 07/25/2016 02:21:03 ( 10.05, 164.65) 07/25/2016 02:24:38 ( 22.67, 161.64)
18 07/25/2016 14:52:56 ( 22.65, 161.88) 07/25/2016 14:56:31 ( 10.03, 158.88)
19 07/26/2016 03:43:31 ( 10.05, 144.03) 07/26/2016 03:47:06 ( 22.67, 141.03)
20 07/26/2016 14:35:06 ( 18.38, 165.59) 07/26/2016 14:37:28 ( 10.05, 163.64)
21 07/26/2016 16:15:23 ( 22.66, 141.26) 07/26/2016 16:17:26 ( 15.44, 139.51)
22 07/27/2016 03:24:28 ( 10.04, 148.79) 07/27/2016 03:28:03 ( 22.66, 145.79)
23
